Weather History for Raton, NM

Change the Weather History Date:

Monday, February 18, 2013

  Actual Average (KTAD) Record (KTAD)
Temperature  
Mean Temperature 34 °F 36 °F  
Max Temperature 46 °F 51 °F 70 °F (1983)
Min Temperature 23 °F 21 °F -4 °F (2006)
Degree Days  
Heating Degree Days 30 30  
Month to date heating degree days 560  
Since 1 July heating degree days 3842  
Cooling Degree Days 0 0  
Month to date cooling degree days 0  
Year to date cooling degree days 0  
Moisture  
Dew Point 9 °F    
Average Humidity 39    
Maximum Humidity 60    
Minimum Humidity 6    
Precipitation  
Precipitation 0.00 in 0.02 in 0.38 in (1955)
Month to date precipitation 0.29  
Year to date precipitation 0.69  
Sea Level Pressure  
Sea Level Pressure 29.89 in    
Wind  
Wind Speed 10 mph (WNW)    
Max Wind Speed 24 mph    
Max Gust Speed 31 mph    
Visibility 10 miles    
Events      
T = Trace of Precipitation, MM = Missing Value Source: NWS Daily Summary

Daily Weather History Graph

Daily Weather History Graph

Search for Another Location

Airport:

Trip Planner

Search our weather history database for the weather conditions in past years. The results will help you decide how hot, cold, wet, or windy it might be!

Date:

Astronomy

Feb. 18, 2013 Rise Set
Actual Time 6:42 AM MST 5:41 PM MST
Civil Twilight 6:16 AM MST 6:08 PM MST
Nautical Twilight 5:45 AM MST 6:38 PM MST
Astronomical Twilight 5:15 AM MST 7:08 PM MST
Moon 11:34 AM MST (2/18) 1:20 AM MST (2/18)
Length of Visible Light 11h 52m
Length of Day
10h 59m
First Quarter, 59% of the Moon is Illuminated
Feb 18
First Quarter
Feb 25
Full
Mar 4
Last Quarter
Mar 11
New
Mar 19
First Quarter

Hourly Weather History & Observations

Time (MST) Temp. Windchill Dew Point Humidity Pressure Visibility Wind Dir Wind Speed Gust Speed Precip Events Conditions
12:53 AM 30.9 °F - 1.9 °F 29% 29.57 in 10.0 mi Calm Calm - N/A   Clear
1:53 AM 30.9 °F 17.5 °F 12.0 °F 46% 29.60 in 10.0 mi NNE 24.2 mph 31.1 mph N/A   Clear
2:53 AM 28.9 °F 18.6 °F 12.9 °F 51% 29.65 in 10.0 mi NNE 12.7 mph - N/A   Clear
3:53 AM 26.1 °F 17.6 °F 12.0 °F 55% 29.68 in 10.0 mi NNE 8.1 mph - N/A   Clear
4:53 AM 26.1 °F 16.2 °F 14.0 °F 60% 29.71 in 10.0 mi NNE 10.4 mph - N/A   Partly Cloudy
5:53 AM 28.0 °F 16.1 °F 15.1 °F 58% 29.75 in 10.0 mi NNE 16.1 mph 23.0 mph N/A   Overcast
7:53 AM 27.0 °F 17.3 °F 14.0 °F 58% 29.91 in 10.0 mi North 10.4 mph - N/A   Overcast
8:53 AM 32.0 °F 21.6 °F 14.0 °F 48% 29.94 in 10.0 mi North 15.0 mph 20.7 mph N/A   Clear
9:53 AM 34.0 °F 28.8 °F 14.0 °F 44% 29.95 in 10.0 mi NNE 5.8 mph - N/A   Clear
10:53 AM 37.0 °F 29.3 °F 10.9 °F 34% 29.94 in 10.0 mi North 11.5 mph 18.4 mph N/A   Partly Cloudy
11:53 AM 39.0 °F 32.3 °F 12.0 °F 33% 29.89 in 10.0 mi NE 10.4 mph 17.3 mph N/A   Clear
12:53 PM 43.0 °F 40.3 °F 3.0 °F 19% 29.90 in 10.0 mi Variable 4.6 mph 19.6 mph N/A   Clear
1:42 PM 44.6 °F 37.4 °F 6.8 °F 21% 29.92 in 10.0 mi SSW 16.1 mph 24.2 mph N/A   Clear
1:51 PM 44.6 °F 37.2 °F 8.6 °F 23% 29.92 in 10.0 mi South 17.3 mph 24.2 mph N/A   Clear
1:53 PM 44.1 °F 36.8 °F 9.0 °F 24% 29.88 in 10.0 mi South 16.1 mph 24.2 mph N/A   Clear
2:53 PM 46.9 °F - -18.9 °F 6% 29.88 in 10.0 mi West 19.6 mph 26.5 mph N/A   Clear
3:53 PM 45.0 °F 37.9 °F 5.0 °F 19% 29.90 in 10.0 mi SSW 16.1 mph - N/A   Clear
4:53 PM 44.1 °F 37.4 °F 3.9 °F 19% 29.92 in 10.0 mi South 13.8 mph - N/A   Clear
5:53 PM 35.1 °F 29.3 °F 9.0 °F 34% 29.97 in 10.0 mi South 6.9 mph - N/A   Clear
6:53 PM 34.0 °F 28.0 °F 10.9 °F 38% 30.01 in 10.0 mi SW 6.9 mph - N/A   Clear
7:53 PM 32.0 °F 25.6 °F 10.0 °F 40% 30.05 in 10.0 mi SW 6.9 mph - N/A   Clear
8:53 PM 30.0 °F 25.2 °F 10.9 °F 45% 30.07 in 10.0 mi West 4.6 mph - N/A   Clear
9:53 PM 28.9 °F 25.2 °F 12.0 °F 49% 30.08 in 10.0 mi WSW 3.5 mph - N/A   Clear
10:53 PM 23.0 °F 14.7 °F 10.9 °F 60% 30.10 in 10.0 mi West 6.9 mph - N/A   Clear
11:53 PM 24.1 °F 17.0 °F 10.9 °F 57% 30.09 in 10.0 mi West 5.8 mph - N/A   Clear